レオナード彗星

P/2017 Y3 ( Leonard )

English version
Home page
Updated on September 23, 2018

---------------------------------------------------------------------

・ プロフィール

発見日 2017年12月26日
発見光度 19.8等
発見者 G. J. Leonard (Mount Lemmon)

・ 写真集

・ 軌道要素

Epoch 2018 Feb. 11.0 TT = JDT 2458160.5
T 2018 Feb. 11.25995 TT                                 MPCW
q   1.2753781            (2000.0)            P               Q
n   0.03182271     Peri.   67.52855     -0.70382452     +0.68047780
a   9.8622930      Node   153.87391     -0.69045241     -0.72280045
e   0.8706814      Incl.   27.58571     +0.16705245     -0.12045529
P  30.97
From 79 observations 2017 Dec. 26-2018 Aug. 18, mean residual 0".5.

・ 光度変化

        m1 = 16.0 + 5 logΔ + 10.0 log r

---------------------------------------------------------------------

軌道要素はM.P.E.C. 2018-S50に掲載されたものです。
光度グラフはComet for Windowsで作成したものです。

---------------------------------------------------------------------

Copyright(C) Seiichi Yoshida (comet@aerith.net). All rights reserved.